TimeEST,TemperatureF,Dew PointF,Humidity,Sea Level PressureIn,VisibilityMPH,Wind Direction,Wind SpeedMPH,Gust SpeedMPH,PrecipitationIn,Events,Conditions,WindDirDegrees,DateUTC
12:54 AM,37.9,36.0,93,29.97,6.0,Calm,Calm,-,N/A,,Mostly Cloudy,0,2013-01-17 05:54:00
1:54 AM,37.9,36.0,93,29.98,6.0,Calm,Calm,-,N/A,,Scattered Clouds,0,2013-01-17 06:54:00
2:54 AM,39.0,36.0,89,30.00,8.0,SW,3.5,-,N/A,,Clear,230,2013-01-17 07:54:00
4:54 AM,37.0,35.1,93,29.98,7.0,Calm,Calm,-,N/A,,Scattered Clouds,0,2013-01-17 09:54:00
5:54 AM,37.9,35.1,89,30.00,9.0,Calm,Calm,-,N/A,,Overcast,0,2013-01-17 10:54:00
6:54 AM,39.0,33.1,79,30.03,10.0,Calm,Calm,-,N/A,,Clear,0,2013-01-17 11:54:00
7:54 AM,39.9,28.9,65,30.06,10.0,NW,3.5,-,N/A,,Partly Cloudy,310,2013-01-17 12:54:00
8:54 AM,39.9,28.0,63,30.10,10.0,WNW,5.8,-,N/A,,Clear,300,2013-01-17 13:54:00
9:54 AM,39.9,28.0,63,30.09,10.0,NNW,6.9,-,N/A,,Clear,330,2013-01-17 14:54:00
10:54 AM,39.9,28.0,63,30.10,10.0,WNW,6.9,-,N/A,,Clear,290,2013-01-17 15:54:00
11:54 AM,42.1,28.0,58,30.10,10.0,NW,9.2,-,N/A,,Mostly Cloudy,320,2013-01-17 16:54:00
12:54 PM,42.1,27.0,55,30.08,10.0,NW,6.9,-,N/A,,Partly Cloudy,310,2013-01-17 17:54:00
1:54 PM,42.1,28.0,58,30.06,10.0,NW,5.8,-,N/A,,Partly Cloudy,320,2013-01-17 18:54:00
2:54 PM,42.1,28.0,58,30.06,10.0,NNW,8.1,-,N/A,,Clear,330,2013-01-17 19:54:00
3:54 PM,41.0,28.0,60,30.06,10.0,NNW,4.6,-,N/A,,Overcast,330,2013-01-17 20:54:00
4:54 PM,41.0,28.0,60,30.10,10.0,Calm,Calm,-,N/A,,Overcast,0,2013-01-17 21:54:00
5:54 PM,39.9,28.0,63,30.09,10.0,Calm,Calm,-,N/A,,Overcast,0,2013-01-17 22:54:00
6:54 PM,39.9,27.0,60,30.10,10.0,Calm,Calm,-,N/A,,Overcast,0,2013-01-17 23:54:00
7:54 PM,39.0,28.9,67,30.09,10.0,Calm,Calm,-,N/A,,Overcast,0,2013-01-18 00:54:00
8:54 PM,37.0,30.0,76,30.06,10.0,Calm,Calm,-,N/A,,Overcast,0,2013-01-18 01:54:00
9:54 PM,37.0,30.0,76,30.05,10.0,Calm,Calm,-,N/A,,Overcast,0,2013-01-18 02:54:00
10:54 PM,37.9,28.0,68,30.05,10.0,Calm,Calm,-,N/A,,Overcast,0,2013-01-18 03:54:00
11:54 PM,37.9,28.0,68,30.04,10.0,Calm,Calm,-,N/A,,Overcast,0,2013-01-18 04:54:00